Weather in Zhernovets

Russia / Oryol Oblast     52°30′56″N   35°45′15″E
temp.,
°C
wind,
m/s
gust,
m/s
humid.,
%
clouds,
%
prec.,
mm/h
press.,
hPa
HPBL,
m
19 may, wed
wed1900:00+14se379596 0.4 1003211
03:00+13sse389568 0.4 1003178
06:00+13sse4109513 0.0 1004339
09:00+16sse598094 0.1 1004619
12:00+18sse6869100 0.2 10051382
15:00+18sse4665100 0.3 10051206
18:00+14s4688100 0.3 1005317
21:00+13e119389 0.5 100419
20 may, thu
thu2000:00+12wnw1398100 2.1 1002194
03:00+10s61197100 19.9 1001528
06:00+11s4896100 2.9 1002367
09:00+11s5797100 1.5 1003437
12:00+11sw61096100 2.6 1005584
15:00+13s4790100 3.4 1005502
18:00+13wsw5790100 1.2 1006596
21:00+10wsw61095100 1.4 1008548
21 may, fri
fri2100:00+10wsw71293100 0.0 1008787
03:00+10w61193100 0.0 1010642
06:00+10w5889100 0.0 1012686
09:00+12wnw577947 0.0 1014780
12:00+16nnw5666100 0.0 10151123
15:00+17nnw3357100 0.0 10151561
18:00+17nnw226683 0.0 10161061
21:00+12nnw1172100 0.0 101810
22 may, sat
sat2200:00+10ne118256 0.0 101810
03:00+9nne3388100 0.0 101827
06:00+10ne368999 0.0 1018154
09:00+14ene5877100 0.0 1017668
12:00+16e6673100 0.0 10171062
15:00+16e4478100 0.1 1017771
18:00+15e4687100 0.0 1016347
21:00+12ene3794100 0.0 1016144
23 may, sun
sun2300:00+11ene41197100 0.0 1014269
03:00+10ne3898100 0.0 1014217
06:00+11ene4897100 0.0 1011287
09:00+14se3493100 0.0 1009390
12:00+16s3489100 1.0 1008531
15:00+18sw4682100 1.2 1006835
18:00+17sw4886100 0.1 1006341
21:00+13w61287100 0.2 1007502